OAO 2 (3597 NORAD) Tracking and Keplerian Element Data

This shows tracking and keplerian element data for the satellite.

Feedback or suggestion? Click here.




ElementValue
Catalog3597
NameOAO 2
Epoch Orbit90560
Epoch Day13.17533106
Epoch Year2024
RAAN333.6885
Inclination34.9949
Eccentricity0.0005459
Argument of Perigee7.3079
Mean Anonmoly352.769
Mean Motion14.46389576
Decay Rate5.09E-06
L11 03597U 68110A 24013.17533106 .00000509 00000+0 14515-3 0 9998
L22 03597 34.9949 333.6885 0005459 7.3079 352.7690 14.46389576905604



Live tracking and technical data element details for OAO 2 (NORAD 3597). OAO 2 can be tracked NOW for your location showing map with azimuth and elevation plus other details from your city location.







IsCatalogInMostPopularTable: catalog: 3597, numindb: 307
Update: records affected: 1



GetName: 3597 OAO 2

Hit Count: updated at: Mon, 15 Apr 2024 00:20:23 GMT